Weather History for Lansing, MI

Change the Weather History Date:

Sunday, May 26, 2013

  Actual Average Record
Temperature  
Mean Temperature 54 °F 61 °F  
Max Temperature 68 °F 72 °F 90 °F (1911)
Min Temperature 39 °F 50 °F 31 °F (1891)
Degree Days  
Heating Degree Days 11 6  
Month to date heating degree days 159 234  
Since 1 July heating degree days 6500 6632  
Cooling Degree Days 0 2  
Month to date cooling degree days 47 24  
Year to date cooling degree days 47 31  
Growing Degree Days 4 (Base 50)    
Moisture  
Dew Point 35 °F    
Average Humidity 56    
Maximum Humidity 86    
Minimum Humidity 26    
Precipitation  
Precipitation 0.00 in 0.11 in 1.77 in (1932)
Month to date precipitation 1.14 2.79  
Year to date precipitation 15.19 11.00  
Snow  
Snow 0.00 in 0.00 in T in (1932)
Month to date snowfall 0.0 0.0  
Since 1 July snowfall 30.2 51.1  
Snow Depth 0.00 in    
Sea Level Pressure  
Sea Level Pressure 30.32 in    
Wind  
Wind Speed 4 mph (ENE)    
Max Wind Speed 12 mph    
Max Gust Speed 15 mph    
Visibility 10 miles    
Events      
T = Trace of Precipitation, MM = Missing Value Source: NWS Daily Summary

Daily Weather History Graph

Daily Weather History Graph

Search for Another Location

Airport:

Trip Planner

Search our weather history database for the weather conditions in past years. The results will help you decide how hot, cold, wet, or windy it might be!

Date:

Astronomy

May. 26, 2013 Rise Set
Actual Time 6:06 AM EDT 9:05 PM EDT
Civil Twilight 5:32 AM EDT 9:39 PM EDT
Nautical Twilight 4:49 AM EDT 10:22 PM EDT
Astronomical Twilight 3:59 AM EDT 11:12 PM EDT
Moon 10:51 PM EDT (5/26) 7:34 AM EDT (5/26)
Length of Visible Light 16h 06m
Length of Day
14h 59m
Waning Gibbous, 97% of the Moon is Illuminated
May 26
Waning Gibbous
May 31
Last Quarter
Jun 8
New
Jun 16
First Quarter
Jun 23
Full

Hourly Weather History & Observations

Time (EDT) Temp. Windchill Dew Point Humidity Pressure Visibility Wind Dir Wind Speed Gust Speed Precip Events Conditions
12:53 AM 44.1 °F 40.8 °F 36.0 °F 73% 30.34 in 10.0 mi ENE 5.8 mph - N/A   Clear
1:53 AM 44.1 °F 42.5 °F 37.0 °F 76% 30.34 in 10.0 mi East 3.5 mph - N/A   Clear
2:53 AM 44.1 °F - 37.0 °F 76% 30.33 in 10.0 mi Calm Calm - N/A   Clear
3:53 AM 43.0 °F - 36.0 °F 76% 30.33 in 10.0 mi Calm Calm - N/A   Clear
4:53 AM 41.0 °F - 37.0 °F 86% 30.33 in 10.0 mi Calm Calm - N/A   Clear
5:53 AM 39.9 °F - 36.0 °F 86% 30.35 in 10.0 mi Calm Calm - N/A   Clear
6:53 AM 41.0 °F - 37.9 °F 89% 30.35 in 10.0 mi Calm Calm - N/A   Clear
7:53 AM 46.9 °F - 41.0 °F 80% 30.36 in 10.0 mi Calm Calm - N/A   Clear
8:53 AM 54.0 °F - 34.0 °F 47% 30.38 in 10.0 mi SSW 3.5 mph - N/A   Clear
9:53 AM 57.9 °F - 32.0 °F 37% 30.36 in 10.0 mi Calm Calm - N/A   Clear
10:53 AM 61.0 °F - 28.0 °F 29% 30.36 in 10.0 mi ESE 5.8 mph - N/A   Clear
11:53 AM 63.0 °F - 28.9 °F 28% 30.35 in 10.0 mi Calm Calm - N/A   Clear
12:53 PM 64.9 °F - 32.0 °F 29% 30.35 in 10.0 mi ENE 4.6 mph - N/A   Clear
1:53 PM 64.9 °F - 33.1 °F 31% 30.32 in 10.0 mi Calm Calm - N/A   Clear
2:53 PM 66.0 °F - 30.9 °F 27% 30.32 in 10.0 mi Variable 5.8 mph - N/A   Clear
3:53 PM 64.9 °F - 32.0 °F 29% 30.30 in 10.0 mi NNE 6.9 mph - N/A   Clear
4:53 PM 68.0 °F - 33.1 °F 27% 30.28 in 10.0 mi East 5.8 mph - N/A   Clear
5:53 PM 66.9 °F - 37.0 °F 33% 30.27 in 10.0 mi NE 4.6 mph - N/A   Clear
6:53 PM 64.9 °F - 36.0 °F 34% 30.26 in 10.0 mi NE 10.4 mph - N/A   Clear
7:53 PM 62.1 °F - 37.0 °F 39% 30.25 in 10.0 mi ENE 6.9 mph - N/A   Clear
8:53 PM 57.9 °F - 35.1 °F 42% 30.25 in 10.0 mi NE 6.9 mph - N/A   Clear
9:53 PM 55.0 °F - 37.0 °F 51% 30.25 in 10.0 mi ENE 5.8 mph - N/A   Clear
10:53 PM 54.0 °F - 36.0 °F 51% 30.26 in 10.0 mi ENE 4.6 mph - N/A   Clear
11:53 PM 53.1 °F - 34.0 °F 48% 30.27 in 10.0 mi East 5.8 mph - N/A   Clear